sat.trackr.live / text

‹ back to catalog

STARLINK-35546

NORAD 66240 · 2025-245G

PAYLOAD ACTIVE UNKNOWN

§ Identity

Operator
Country
US
Launch date
2025-10-29
Launch site
AFETR
Launch vehicle
Mass (kg)
RCS (m²)

Purposes: comms

External: N2YO · Heavens-Above · Gunter

§ Orbital elements

Epoch: 2026-09-20T22:39:08.709984Z

Period
93.85 min
Inclination
53.1586°
Eccentricity
0.0000864
Mean motion
15.34421256 rev/d
Perigee alt
462.0 km
Apogee alt
463.2 km
Semi-major
6,840.8 km
B*
4.7458e-4
RAAN
95.3452°
Arg perigee
80.4956°
Mean anomaly
279.6144°
Rev number
5,117

§ Raw data

STARLINK-355461 66240U 25245G   26263.94385081  .00015703  00000+0  47458-3 0  99992 66240  53.1586  95.3452 0000864  80.4956 279.6144 15.34421256 51176

JSON: /api/v1/satellites/66240 · /tle

For live sub-satellite position, see the globe view (requires WebGL).

§ Visibility from observer

Set your observer location to see the next 7 days of passes ≥ 10°. The values pass through the URL so the page stays shareable.

No JS? Fill the form by hand. The geolocation button needs JavaScript.